Погода в Елеце

Погода в Елеце : погода сейчас, прогноз погоды и архив. Всё, что Вы хотите узнать о погоде в Елеце!

Хотите узнать прогноз погоды в Елеце? Тогда Вам сюда: Погода в Елеце

Поиск расширенной информации на нашем сайте:

Другие новости

Новости СМИ2

Главная страница сайта

Новости сайта

03.07.2017

Напоминаем, что на нашем специализированном сайте Метеоцентр.Азия вы можете получить высокодетализированные автоматические прогнозы погоды по пунктам России, СНГ и мира в авиационном формате (включающие направление и скорость ветра, видимость, явления погоды, количество и форму облачности, нижнюю и верхнюю границу облачности).

Рекомендуем: Гусь хрустальный люстры магазин.

Погода в Елеце - сегодня

Время (UTC), дата Ветер
(°,м/с) 
Видим.   Явления Облачность Т
(°С)
Тd
(°С)
f(%) Тe
(°С)
Pmin
(гПа)
dP
(гПа)
Po
(мм)
O2
(г/м3)
Тmin Tmax R s Состояние
почвы
06 15.08.17 040 (СВ) 4000 м  дымка  10/3 600 м средняя 
[Cu hum|Ac und]
+20.6 +19 91 +37  1020  2.1  750  277           
09 15.08.17 030 (СВ) 10 км    9/4 600 м средняя 
[Cu med, cong|Ac As]
+22.8 +18.9 79 +39  1020.6  0.8  751  275           
12 15.08.17 030 (СВ) 4{10}  10 км    8/4 600 м средняя, верхняя 
[Cu med, cong|Ac trans|Ci sp]
+26.4 +17.1 57 +39  1020.6  0.1  751  272           
15 15.08.17 040 (СВ) 10 км    4/3 600 м верхняя 
[Cu med, cong|Ci sp]
+25.8 +16.6 57 +37  1020.9  0.3  751  273    +26.9       
18 15.08.17 030 (СВ) 10 км    ясно 
+21.3 +16.9 76 +33  1022.6  1.4  752  277           
21 15.08.17 030 (СВ) 10 км    ясно 
+19 +16.2 84 +31  1023.4  0.6  753  280           
00 16.08.17 050 (СВ) 4000 м  дымка  ясно 
+16.5 +15.5 94 +26  1024.1  0.5  753  283           
03 16.08.17 040 (СВ) 4000 м  дымка  ясно 
+15.2 +14.9 98 +24  1024.6  0.4  753  284  +15.1         
06 16.08.17 050 (СВ) 10 км    1/1 1000 м 
[Cu hum]
+19.9 +15.9 78 +31  1023.7  -0.6  753  279           
09 16.08.17 070 (В) 10 км    4/4 1000 м 
[Cu hum]
+25.2 +15.7 56 +35  1022.9  -0.4  753  274           
12 16.08.17 060 (СВ) 10 км    5/5 1000 м 
[Cu med, cong]
+26.4 +15.2 50 +35  1022.5  -0.4  752  273           
15 16.08.17 080 (В) 10 км    1/1 1000 м 
[Cu hum]
+26.2 +15.8 53 +36  1022.4  -0.1  752  273    +27.9       
18 16.08.17 060 (СВ) 10 км    ясно 
+21.1 +16.4 75 +32  1023.1  0.5  753  278           
21 16.08.17 060 (СВ) 4000 м  дымка  3/0 средняя 
[Ac trans]
+18.5 +16.7 89 +31  1023.7  0.3  753  280           
00 17.08.17 050 (СВ) 4000 м  дымка  3/0 средняя 
[Ac trans]
+16.7 +15.9 95 +28  1023.9  0.1  753  282           
03 17.08.17 060 (СВ) 4000 м  дымка  8/4 600 м средняя 
[Cu med, cong|Ac trans]
+16.7 +15.9 95 +27  1024.1  0.2  753  283  +16         
06 17.08.17 030 (СВ) 10 км    8/5 600 м средняя 
[Cu hum|Ac trans]
+19.6 +16.1 80 +32  1024  0.1  753  280           
09 17.08.17 140 (ЮВ) 10 км    3/3 600 м 
[Cu hum]
+27.7 +11.8 37 +31  1023.2  -0.2  753  273           
12 17.08.17 100 (В) 10 км    5/5 600 м 
[Cu med, cong]
+28.5 +12 36 +32  1022.7  -0.5  753  272           
15 17.08.17 090 (В) 10 км    4/4 600 м 
[Cu med, cong]
+26.4 +13.7 46 +33  1022.4  -0.5  752  274    +29.2       
18 17.08.17 080 (В) 10 км    ясно 
+21.9 +14.2 62 +29  1022.8  0.2  752  278           
21 17.08.17 050 (СВ) 10 км    ясно 
+18.7 +14.8 78 +28  1023.2  0.1  753  281           
00 18.08.17 030 (СВ) 4000 м  дымка  ясно 
+16.3 +14.2 87 +25  1023.4  0.1  753  283           
03 18.08.17 040 (СВ) 4000 м  дымка  3/1 600 м средняя 
[Cu hum|Ac trans]
+15 +12.8 87 +21  1023.9  0.3  753  285  +14.7         
06 18.08.17 050 (СВ) 10 км    1/0 верхняя 
[Ci fib]
+21 +14.1 65 +28  1024.1  0.6  753  279           
Время (UTC), дата Ветер
(°,м/с) 
Видим.   Явления Облачность Т
(°С)
Тd
(°С)
f(%) Тe
(°С)
Pmin
(гПа)
dP
(гПа)
Po
(мм)
O2
(г/м3)
Тmin Tmax R s Состояние
почвы

Для получения пояснительной информации подведите курсор к названию столбца.

ПОГОДА в Елеце - архив

Всё, что Вы хотите узнать о погоде в Елеце - удобно и подробно!

Выберите нужную дату (начиная с 1 января 2015* года) и нажмите кнопку "Найти".
Будут отображены архивные сводки погоды по пункту Елец, начиная с указанной даты.


Отображать данные в формате CSV (для использования в таблицах Excel)


Внимание! Наш архив погоды предназначен исключительно для личного некоммерческого использования в познавательных целях. Если Вам необходимы официальные справки о состоянии погоды (для производственных, юридических, коммерческих и т.п. целей), обращайтесь в органы Росгидромета.

*Примечание: данная дата относится к архиву по метеостанциям СССР (Россия, СНГ, Балтия).
Архив по метеостанциям Зарубежной Европы и Азии (кроме Китая) хранится 10 дней, по другим регионам земного шара (Китай, Африка, Америка, Австралия, Океания) - 1 день.

Елец - район местоположения метеостанции


Название, широта, долгота, высота метеостанции:
Елец 52.6°ш. 38.5°д. 168 м над ур. моря [Российская Федерация]

Дополнительная информация

В oтличие oт бoльшинства пoгoдных сайтoв мы публикуем пoдрoбную метеoинфoрмацию в детальнoм прoфессиoнальнoм фoрмате.

Характеристики температуры и влажнoсти вoздуха измеряются на высoте 2 м в тени вдали oт зданий и деревьев.
Скoрoсть ветра измеряется на высoте 10 м (на урoвне рoста челoвека скoрoсть ветра ниже в 1.5-2 раза). Если метеoстанция нахoдится в гoрoде или в лесу, тo скoрoсть ветра занижена на 2-4 м/с пo сравнению с oткрытым местoм. Скoрoсть ветра над акватoриями крупных рек и oзёр, а также на вершинах хoлмoв на 2-5 м/с выше, чем в oбычных услoвиях.
Атмoсфернoе давление в разных тoчках местнoсти мoжет значительнo oтличаться oт давления на метеoстанции, в зависимoсти oт услoвий рельефа (при пoдъёме на 10 м давление пoнижается примернo на 1 мм рт.ст.).